Location: Newark
(23.3970°S, 47.6010°W)
Time: 11:06:07
(UTC+00:00)

Tiros 1 despin weight - Pass Details

Date: 23 February 2020
Orbit: 593 x 642 km, 48.2° (Epoch: 06 April)

Event Time Altitude Azimuth Distance (km) Brightness Sun altitude
Rises 12:36:44 0° 342° (NNW) 2,856 ? 48.0°
Reaches altitude 10° 12:39:17 10° 354° (N) 1,968 ? 48.5°
Maximum altitude 12:43:05 27° 51° (NE) 1,215 ? 49.4°
Drops below altitude 10° 12:46:57 10° 108° (ESE) 2,012 ? 50.2°
Sets 12:49:35 0° 120° (ESE) 2,934 ? 50.8°
